STARLINK-2756 (48683 NORAD) Tracking and Keplerian Element Data

This shows tracking and keplerian element data for the satellite.

Feedback or suggestion? Click here.




ElementValue
Catalog48683
NameSTARLINK-2756
Epoch Orbit177
Epoch Day170.58334491
Epoch Year2021
RAAN306.2511
Inclination53.0478
Eccentricity0.0001357
Argument of Perigee48.4883
Mean Anonmoly80.7665
Mean Motion15.73232724
Decay Rate-7.862E-05
L11 48683U 21044AX 21170.58334491 -.00007862 00000-0 -51560-4 0 9994
L22 48683 53.0478 306.2511 0001357 48.4883 80.7665 15.73232724 1770

Live tracking and technical data element details for STARLINK-2756 (NORAD 48683). STARLINK-2756 can be tracked NOW for your location showing map with azimuth and elevation plus other details from your city location.

Track the satellite on the map from your city or location and see movement details for azimuth, elevation, latitude, longitude, range, height, and movement on the map or in text.







IsCatalogInMostPopularTable: catalog: 48683, numindb: 2
Update: records affected: 1



GetName: 48683 STARLINK-2756

Hit Count: updated at: Mon, 21 Jun 2021 04:58:43 GMT